[[{"header":{"parameterUnit":"m.s-1","parameterCategory":1,"la1":30.2991,"la2":30.254,"lo1":-89.0895,"lo2":-89.0444,"dy":0.0017,"dx":0.0017,"nx":28,"ny":28,"refTime":"2024-08-11T15:00:00:Z","depth":0,"parameterNumber":2,"parameterNumberName":"U-component_of_WINDS"},"data":[0,0,0,0,0,0,0,0,0,0,0,0,0,0,0,0,0,0,0,0,0,0,0,0,0,0,0,0,0,0,0,0,0,0,0,0,0,0,0,0,0,0,0,0,0,0,0,0,0,0,0,0,0,0,0,0,0,0,-0.0253,-0.0252,0,-0.0181,-0.018,-0.018,-0.0092,-0.009,-0.0089,-0.0087,-0.0014,-0.0013,-0.0013,0,0,0,0,0,0,0,0,0,0,0,0,0,-0.0313,-0.0312,-0.0253,-0.0252,-0.0251,-0.0181,-0.018,-0.0179,-0.0092,-0.009,-0.0088,-0.0087,-0.0014,-0.0013,-0.0013,0,0,0,0,0,0,0,0,0,0,0,0,0,-0.0269,-0.0312,-0.0253,-0.0199,-0.0193,-0.0182,-0.018,-0.0179,-0.0092,-0.009,-0.0088,-0.0086,-0.0014,-0.0013,-0.0012,-0.0048,0,0,-0.0009,-0.0009,0,0,0,0,0,0,0,0,-0.0271,-0.0267,-0.0208,-0.0203,-0.0196,-0.0143,-0.0174,-0.0135,-0.0093,-0.0131,-0.0087,-0.0085,-0.0059,-0.0054,-0.0045,-0.0044,-0.0041,-0.0009,-0.0009,-0.0008,-0.0008,0,0,0,0,0,0,0,-0.0275,-0.0269,-0.0224,-0.0207,-0.02,-0.0178,-0.0169,-0.0167,-0.0107,-0.0127,-0.0121,-0.0113,-0.0055,-0.0046,-0.0043,-0.004,-0.0009,-0.0008,-0.0008,-0.0007,-0.0065,-0.0067,0,0,0,0,0,0,-0.0286,-0.0272,-0.0227,-0.0222,-0.023,-0.0179,-0.0169,-0.0162,-0.0107,-0.0096,-0.0115,-0.0109,-0.0049,-0.0044,-0.004,-0.0078,-0.0008,-0.0007,-0.0007,-0.0063,-0.0065,-0.0068,0,0,0,0,0,0,-0.0287,-0.0283,-0.023,-0.0245,-0.0237,-0.018,-0.0173,-0.0162,-0.0153,-0.0098,-0.0087,-0.0117,-0.0047,-0.0041,-0.0046,-0.0074,-0.0007,-0.0006,-0.006,-0.0064,-0.0066,-0.0154,0,0,0,0,0,0,-0.0289,-0.0284,-0.0297,-0.0246,-0.0237,-0.0238,-0.0175,-0.0162,-0.0152,-0.0143,-0.0097,-0.0087,-0.0045,-0.0048,-0.0046,-0.0071,-0.0005,-0.0058,-0.0062,-0.0065,-0.0148,-0.016,-0.017,0,0,0,0,0,-0.0292,-0.0324,-0.0298,-0.0293,-0.0252,-0.024,-0.0234,-0.0185,-0.0154,-0.0167,-0.0131,-0.0088,-0.0071,-0.005,-0.0046,-0.0072,-0.0056,-0.0061,-0.0065,-0.0144,-0.0158,-0.0169,0,0,0,0,0,0,-0.0379,-0.0317,-0.0287,-0.0304,-0.0278,-0.0225,-0.024,-0.0202,-0.0184,-0.0177,-0.0117,-0.0107,-0.012,-0.0096,-0.0073,-0.0103,-0.0057,-0.0061,-0.0118,-0.0131,-0.0141,-0.0147,-0.0004,0,0,0,0,0,-0.0401,-0.0396,-0.0342,-0.0362,-0.035,-0.0298,-0.029,-0.0255,-0.0226,-0.0214,-0.0179,-0.0152,-0.014,-0.0134,-0.012,-0.0144,-0.0133,-0.016,-0.017,-0.0179,-0.0184,-0.0195,-0.0206,-0.0083,-0.0083,-0.0083,0,0,-0.0444,-0.041,-0.0411,-0.0379,-0.0354,-0.0351,-0.0289,-0.0288,-0.0285,-0.0214,-0.0217,-0.019,-0.0156,-0.0171,-0.0176,-0.0152,-0.0215,-0.0185,-0.0193,-0.0193,-0.0201,-0.0213,-0.0223,-0.0087,-0.0086,-0.0085,0,0,-0.0523,-0.0496,-0.051,-0.0487,-0.0451,-0.0415,-0.0419,-0.0372,-0.0351,-0.0353,-0.03,-0.0295,-0.0277,-0.0255,-0.0241,-0.0311,-0.0271,-0.0308,-0.0363,-0.0374,-0.0384,-0.0392,-0.0418,-0.0428,-0.0312,-0.0313,-0.0313,0,-0.0582,-0.0575,-0.0522,-0.0525,-0.0512,-0.0447,-0.0461,-0.0441,-0.0403,-0.0396,-0.0369,-0.0344,-0.0316,-0.0325,-0.0342,-0.0333,-0.0335,-0.0313,-0.0387,-0.0395,-0.0402,-0.0425,-0.0435,-0.0317,-0.0317,-0.0316,-0.0316,0,-0.065,-0.0646,-0.0662,-0.0626,-0.0615,-0.0624,-0.0571,-0.0567,-0.0532,-0.0499,-0.0502,-0.0467,-0.0445,-0.0444,-0.041,-0.0448,-0.0434,-0.0398,-0.0351,-0.0419,-0.044,-0.0449,-0.0324,-0.0322,-0.0321,-0.032,0,0,-0.0782,-0.0717,-0.0724,-0.0707,-0.0662,-0.0658,-0.0663,-0.0641,-0.0639,-0.0614,-0.0617,-0.0602,-0.0569,-0.0553,-0.0516,-0.0526,-0.0584,-0.0488,-0.0487,-0.0508,-0.0624,-0.0652,-0.0663,-0.0557,-0.0558,-0.056,-0.0627,0,-0.0853,-0.0858,-0.081,-0.0829,-0.0824,-0.0763,-0.0767,-0.074,-0.0709,-0.0701,-0.0667,-0.0658,-0.0614,-0.0604,-0.0611,-0.0576,-0.0607,-0.057,-0.0559,-0.056,-0.0571,-0.0674,-0.0704,-0.0769,-0.0635,-0.0636,-0.0637,0,-0.0936,-0.0917,-0.0935,-0.0889,-0.0885,-0.089,-0.0867,-0.0859,-0.0827,-0.0804,-0.0787,-0.0745,-0.0746,-0.0701,-0.0702,-0.0679,-0.0671,-0.0653,-0.0654,-0.0652,-0.0603,-0.0676,-0.0789,-0.0799,-0.065,-0.0649,-0.0648,0,-0.1032,-0.1009,-0.1017,-0.1005,-0.0951,-0.0956,-0.0934,-0.09,-0.089,-0.0869,-0.0862,-0.0842,-0.0831,-0.0817,-0.077,-0.0741,-0.0777,-0.0727,-0.0758,-0.0759,-0.0769,-0.0769,-0.0884,-0.0763,-0.0763,-0.0763,-0.0762,0,-0.1116,-0.113,-0.1059,-0.1065,-0.1078,-0.1022,-0.1037,-0.1009,-0.0979,-0.0977,-0.0922,-0.0922,-0.0859,-0.0852,-0.0815,-0.0822,-0.0817,-0.0799,-0.0789,-0.0804,-0.0807,-0.0799,-0.0794,-0.0765,-0.0765,-0.0764,-0.0764,0,-0.1225,-0.1179,-0.1183,-0.1132,-0.112,-0.1132,-0.1088,-0.1091,-0.1057,-0.1055,-0.1052,-0.0998,-0.0986,-0.0938,-0.0914,-0.0889,-0.0909,-0.0889,-0.092,-0.0914,-0.0947,-0.0945,-0.1062,-0.1074,-0.0945,-0.0947,-0.0948,0,-0.1283,-0.1292,-0.1242,-0.1237,-0.1217,-0.121,-0.1199,-0.1145,-0.1136,-0.11,-0.1107,-0.1091,-0.1075,-0.106,-0.1019,-0.1,-0.098,-0.1022,-0.0977,-0.0992,-0.0982,-0.0982,-0.0983,-0.1032,-0.1034,-0.1035,-0.1037,0,-0.139,-0.1366,-0.1353,-0.1333,-0.1322,-0.1303,-0.1281,-0.128,-0.1219,-0.1212,-0.1199,-0.1187,-0.1163,-0.1148,-0.1123,-0.11,-0.1059,-0.1051,-0.1057,-0.1073,-0.1091,-0.1083,-0.0947,-0.1049,-0.1047,-0.1047,-0.1046,-0.1045,-0.1475,-0.148,-0.1446,-0.1433,-0.1411,-0.1391,-0.1391,-0.1357,-0.1346,-0.1322,-0.129,-0.1282,-0.1249,-0.1211,-0.1191,-0.1184,-0.1161,-0.117,-0.1172,-0.1175,-0.1183,-0.1092,-0.1179,-0.1179,-0.1178,-0.1178,-0.1178,0,-0.1579,-0.1554,-0.1543,-0.1514,-0.1504,-0.1466,-0.1439,-0.1433,-0.1427,-0.14,-0.1386,-0.1371,-0.1356,-0.1314,-0.1294,-0.1297,-0.1277,-0.1294,-0.1293,-0.1289,-0.1205,-0.1202,-0.131,-0.131,-0.131,-0.131,-0.131,-0.131,-0.1633,-0.1639,-0.1612,-0.1607,-0.1581,-0.1573,-0.1561,-0.1543,-0.1521,-0.1508,-0.1495,-0.1467,-0.1434,-0.1412,-0.1396,-0.1384,-0.138,-0.1403,-0.1385,-0.1307,-0.1295,-0.1283,-0.128,-0.1402,-0.1402,-0.1469,-0.147,-0.1471]},{"header":{"parameterUnit":"m.s-1","parameterCategory":1,"la1":30.2991,"la2":30.254,"lo1":-89.0895,"lo2":-89.0444,"dy":0.0017,"dx":0.0017,"nx":28,"ny":28,"refTime":"2024-08-11T15:00:00:Z","depth":0,"parameterNumber":3,"parameterNumberName":"V-component_of_WINDS"},"data":[0,0,0,0,0,0,0,0,0,0,0,0,0,0,0,0,0,0,0,0,0,0,0,0,0,0,0,0,0,0,0,0,0,0,0,0,0,0,0,0,0,0,0,0,0,0,0,0,0,0,0,0,0,0,0,0,0,0,0.261,0.261,0,0.2591,0.2591,0.2591,0.2591,0.2591,0.2592,0.2592,0.2573,0.2572,0.2571,0,0,0,0,0,0,0,0,0,0,0,0,0,0.2646,0.2645,0.261,0.261,0.261,0.2592,0.2591,0.2591,0.2591,0.2591,0.2592,0.2592,0.2573,0.2572,0.2571,0,0,0,0,0,0,0,0,0,0,0,0,0,0.2629,0.2645,0.261,0.2608,0.2607,0.2592,0.2591,0.2591,0.2591,0.2591,0.2592,0.2592,0.2573,0.2572,0.2571,0.2557,0,0,0.2568,0.2567,0,0,0,0,0,0,0,0,0.263,0.2628,0.2608,0.2608,0.2607,0.2594,0.2597,0.258,0.2591,0.2597,0.2592,0.2592,0.258,0.2578,0.2574,0.2556,0.2555,0.2568,0.2567,0.2566,0.2566,0,0,0,0,0,0,0,0.2631,0.2628,0.2603,0.2608,0.2607,0.2607,0.2605,0.2593,0.2587,0.2597,0.2597,0.2594,0.2579,0.2575,0.2573,0.2555,0.2568,0.2567,0.2566,0.2566,0.2523,0.2523,0,0,0,0,0,0,0.2633,0.2629,0.2603,0.2602,0.262,0.2606,0.2604,0.2598,0.2587,0.2585,0.2594,0.2594,0.2576,0.2574,0.2573,0.2554,0.2567,0.2565,0.2565,0.2524,0.2523,0.2523,0,0,0,0,0,0,0.2634,0.2631,0.2604,0.2616,0.2612,0.2605,0.2598,0.2597,0.2593,0.2585,0.2583,0.2591,0.2577,0.2574,0.256,0.2553,0.2565,0.2564,0.2524,0.2523,0.2523,0.2517,0,0,0,0,0,0,0.2635,0.2631,0.2626,0.2616,0.2612,0.2593,0.2598,0.2597,0.2591,0.2591,0.2581,0.258,0.2577,0.2562,0.2559,0.2552,0.2563,0.2525,0.2524,0.2523,0.2518,0.2516,0.2515,0,0,0,0,0,0.2636,0.2625,0.2625,0.2622,0.2605,0.2592,0.259,0.2587,0.259,0.2585,0.2579,0.258,0.2555,0.2561,0.2558,0.255,0.2525,0.2524,0.2523,0.2519,0.2517,0.2515,0,0,0,0,0,0,0.2635,0.2624,0.2624,0.261,0.2602,0.2592,0.2585,0.2585,0.2576,0.2577,0.2573,0.2571,0.2557,0.2552,0.2559,0.2535,0.254,0.2539,0.2538,0.2536,0.2535,0.2536,0.2562,0,0,0,0,0,0.2633,0.2623,0.2614,0.2603,0.2599,0.2593,0.2587,0.2585,0.2577,0.2573,0.2567,0.2559,0.2549,0.2542,0.2533,0.2518,0.2515,0.2511,0.2509,0.2508,0.2506,0.2496,0.2494,0.2519,0.2519,0.2519,0,0,0.2629,0.2622,0.2616,0.2602,0.2596,0.2586,0.259,0.2579,0.2571,0.2572,0.2558,0.2553,0.2544,0.2529,0.2522,0.2524,0.2499,0.2507,0.2506,0.2505,0.2495,0.2492,0.249,0.2518,0.2518,0.2519,0,0,0.2616,0.261,0.2599,0.2592,0.2582,0.2578,0.2575,0.2566,0.2562,0.2548,0.2548,0.2539,0.2522,0.2515,0.2509,0.2492,0.2492,0.2489,0.2481,0.2471,0.2469,0.2468,0.246,0.2458,0.2488,0.2488,0.2488,0,0.2612,0.2597,0.2593,0.2582,0.2576,0.2575,0.2563,0.2557,0.2545,0.254,0.2543,0.2521,0.2515,0.2497,0.2493,0.2489,0.2485,0.249,0.247,0.2468,0.2466,0.2459,0.2457,0.2487,0.2487,0.2487,0.2488,0,0.2592,0.2581,0.2573,0.2561,0.2553,0.2542,0.2536,0.2529,0.2528,0.2523,0.2508,0.2501,0.2489,0.2485,0.2484,0.2467,0.2468,0.2471,0.2476,0.2464,0.2457,0.2454,0.2487,0.2487,0.2487,0.2487,0,0,0.2578,0.2563,0.256,0.2553,0.2542,0.2533,0.2521,0.251,0.2503,0.2494,0.2484,0.2469,0.2471,0.2464,0.2462,0.2454,0.2439,0.2457,0.2457,0.2452,0.2418,0.2415,0.2412,0.2439,0.2438,0.2438,0.2418,0,0.2563,0.2542,0.2538,0.2519,0.2508,0.2507,0.2496,0.2488,0.2483,0.2473,0.2468,0.2457,0.2461,0.2457,0.2448,0.2442,0.2431,0.2444,0.2428,0.2427,0.2429,0.2409,0.2406,0.2387,0.2416,0.2415,0.2415,0,0.2543,0.2533,0.2512,0.2501,0.2496,0.2487,0.2475,0.2465,0.2455,0.2452,0.2444,0.2443,0.243,0.2436,0.2418,0.2426,0.242,0.2416,0.2415,0.2412,0.2419,0.2404,0.2381,0.2378,0.2411,0.2411,0.2411,0,0.2533,0.2514,0.2499,0.2494,0.2481,0.2474,0.2468,0.2458,0.2451,0.244,0.2435,0.2424,0.2417,0.2408,0.2403,0.2409,0.2384,0.2391,0.238,0.238,0.2374,0.2374,0.2349,0.2372,0.2372,0.2372,0.2372,0,0.2516,0.2503,0.2495,0.2485,0.2471,0.2466,0.2452,0.2446,0.2437,0.2426,0.2425,0.2415,0.241,0.2398,0.2395,0.2379,0.2376,0.2373,0.2372,0.2372,0.2372,0.2367,0.2367,0.2372,0.2372,0.2372,0.2372,0,0.2502,0.2496,0.2479,0.2468,0.2464,0.2454,0.2443,0.2434,0.2429,0.2415,0.2412,0.2404,0.239,0.2384,0.2369,0.2366,0.2347,0.2348,0.235,0.2349,0.2339,0.2339,0.2307,0.2302,0.2331,0.233,0.233,0,0.2491,0.2481,0.2468,0.246,0.2454,0.2442,0.2434,0.2429,0.242,0.2407,0.2399,0.2386,0.2374,0.2353,0.2346,0.2333,0.2332,0.2322,0.233,0.233,0.233,0.233,0.2328,0.232,0.232,0.232,0.2319,0,0.2472,0.2469,0.2457,0.2444,0.2434,0.2424,0.2414,0.2407,0.2401,0.2391,0.2377,0.2368,0.2351,0.2337,0.2324,0.2317,0.2317,0.2317,0.2313,0.2313,0.2314,0.2312,0.2344,0.2317,0.2318,0.2318,0.2318,0.2318,0.2458,0.2449,0.2437,0.2424,0.2415,0.2405,0.2395,0.2388,0.2376,0.2361,0.2359,0.2344,0.2333,0.2314,0.2307,0.2295,0.2297,0.2293,0.2291,0.229,0.2288,0.2317,0.2293,0.2293,0.2293,0.2293,0.2293,0,0.2438,0.243,0.2417,0.2402,0.2391,0.2392,0.238,0.2371,0.2357,0.2347,0.2335,0.2318,0.2304,0.2295,0.2281,0.2273,0.2272,0.2269,0.2269,0.2267,0.2288,0.2291,0.227,0.227,0.227,0.227,0.227,0.227,0.2425,0.2408,0.2404,0.2382,0.2374,0.2359,0.2352,0.2342,0.2333,0.2314,0.2302,0.2296,0.2286,0.2271,0.2258,0.2256,0.225,0.2246,0.2244,0.2263,0.2266,0.2268,0.2271,0.2246,0.2246,0.2224,0.2224,0.2224]}]]